[[{"header":{"parameterUnit":"m.s-1","parameterCategory":2,"la1":30.2992,"la2":30.254,"lo1":-89.0895,"lo2":-89.0443,"dy":0.0025,"dx":0.0025,"nx":19,"ny":19,"refTime":"2026-03-23T03:00:00:Z","depth":"0","parameterNumber":2,"parameterNumberName":"U-component_of_CURRENTS"},"data":[0,0,0,0.3689,0.3694,0.3851,0.3851,0.3817,0.3816,0,0,0,0,0,0,0,0,0,0,0,0.3609,0.361,0.3688,0.3694,0.3851,0.3851,0.3817,0.3816,0,0,0,0,0,0,0,0,0,0,0,0.3608,0.361,0.3612,0.3695,0.3851,0.3851,0.3817,0.3747,0,0,0,0,0,0,0,0,0,0,0.3619,0.3564,0.3609,0.3612,0.3696,0.3851,0.3851,0.3746,0.3751,0.3691,0,0.3737,0,0.3801,0.3812,0.3812,0,0,0,0.3653,0.356,0.3645,0.3612,0.3698,0.3851,0.3768,0.375,0.3756,0.3697,0.3737,0.3739,0.3801,0.3812,0.3812,0.3819,0.382,0,0,0.3644,0.3585,0.3642,0.365,0.3762,0.3764,0.3774,0.3756,0.374,0.3738,0.374,0.38,0.3812,0.3811,0.3819,0.3819,0,0,0,0.3647,0.3578,0.3668,0.3648,0.3711,0.3769,0.3781,0.374,0.3784,0.374,0.38,0.3811,0.3811,0.3818,0.3819,0.3854,0,0,0,0.364,0.3586,0.3664,0.3623,0.3714,0.3755,0.3764,0.3784,0.3786,0.38,0.3811,0.381,0.3818,0.3819,0.3852,0.3837,0,0,0,0.3597,0.3579,0.3616,0.3621,0.3717,0.3758,0.3798,0.3786,0.3823,0.3812,0.381,0.3817,0.3818,0.385,0.3835,0.3821,0,0,0,0.3505,0.3568,0.3614,0.3687,0.3717,0.3818,0.3799,0.3838,0.3833,0.3811,0.3818,0.3819,0.3849,0.3834,0.382,0.3751,0.3749,0,0,0.3541,0.3569,0.3618,0.3666,0.3765,0.3792,0.3848,0.3834,0.3828,0.3798,0.38,0.3853,0.3835,0.382,0.3822,0.3818,0,0,0,0.3602,0.3639,0.3677,0.3743,0.3815,0.385,0.3869,0.3876,0.3883,0.3845,0.3868,0.3855,0.3845,0.3802,0.38,0.3546,0.3825,0.3825,0.3824,0.3548,0.3622,0.3691,0.3785,0.3817,0.3876,0.3897,0.3906,0.3901,0.3924,0.3897,0.3923,0.3882,0.3878,0.3619,0.3927,0.3927,0.3927,0.3927,0.3607,0.3661,0.3699,0.3791,0.3818,0.3842,0.3897,0.3918,0.3941,0.3947,0.3936,0.3858,0.3877,0.3602,0.393,0.3929,0.3929,0.3929,0.3929,0.3582,0.3621,0.3671,0.3739,0.3761,0.3811,0.3827,0.3884,0.3938,0.3953,0.3884,0.3882,0.3624,0.3949,0.3949,0.3949,0.3949,0.3949,0.3949,0.3534,0.3596,0.3623,0.3683,0.3685,0.3702,0.3776,0.3812,0.3858,0.3893,0.3892,0.3596,0.3929,0.3909,0.3948,0.3948,0.3948,0.3948,0.3948,0.3557,0.3531,0.3575,0.3578,0.3588,0.351,0.3607,0.3662,0.3732,0.3751,0.3501,0.3855,0.3822,0.3824,0.3802,0.3809,0.3809,0.3809,0.3809,0.3519,0.3528,0.3534,0.3514,0.3486,0.3431,0.329,0.3308,0.3334,0.3269,0.33,0.3254,0.3271,0.3203,0.3219,0.3183,0.3033,0.3032,0.3031,0.3519,0.3519,0.3492,0.3472,0.3436,0.3298,0.3035,0.2811,0.2897,0.2974,0.2956,0.2989,0.2899,0.2946,0.2827,0.2869,0.2808,0,0]},{"header":{"parameterUnit":"m.s-1","parameterCategory":2,"la1":30.2992,"la2":30.254,"lo1":-89.0895,"lo2":-89.0443,"dy":0.0025,"dx":0.0025,"nx":19,"ny":19,"refTime":"2026-03-23T03:00:00:Z","depth":"0","parameterNumber":3,"parameterNumberName":"V-component_of_CURRENTS"},"data":[0,0,0,-0.118,-0.1185,-0.1448,-0.1449,-0.168,-0.1682,0,0,0,0,0,0,0,0,0,0,0,-0.1079,-0.108,-0.118,-0.1186,-0.1448,-0.1449,-0.168,-0.1682,0,0,0,0,0,0,0,0,0,0,0,-0.1078,-0.108,-0.1081,-0.1186,-0.1448,-0.145,-0.1679,-0.1513,0,0,0,0,0,0,0,0,0,0,-0.1273,-0.1163,-0.1079,-0.1081,-0.1188,-0.1447,-0.145,-0.1506,-0.1523,-0.1524,0,-0.155,0,-0.1614,-0.1693,-0.1693,0,0,0,-0.1207,-0.1149,-0.1241,-0.1081,-0.119,-0.1447,-0.1336,-0.1516,-0.1535,-0.1546,-0.1554,-0.1564,-0.1618,-0.1694,-0.1694,-0.1711,-0.171,0,0,-0.1193,-0.1112,-0.1227,-0.1252,-0.1237,-0.1327,-0.1344,-0.1529,-0.1524,-0.1555,-0.157,-0.1622,-0.1695,-0.1696,-0.1712,-0.171,0,0,0,-0.1136,-0.1101,-0.1191,-0.1241,-0.1294,-0.1334,-0.1353,-0.1516,-0.1552,-0.1573,-0.1625,-0.1696,-0.1698,-0.1713,-0.1711,-0.1512,0,0,0,-0.1129,-0.1068,-0.1183,-0.1136,-0.129,-0.1417,-0.1335,-0.1539,-0.1563,-0.1624,-0.1696,-0.1699,-0.1714,-0.1712,-0.1519,-0.1403,0,0,0,-0.107,-0.1061,-0.1091,-0.1132,-0.124,-0.1416,-0.1464,-0.1547,-0.1592,-0.1693,-0.17,-0.1715,-0.1712,-0.1527,-0.1417,-0.1208,0,0,0,-0.0983,-0.1018,-0.1088,-0.1143,-0.1237,-0.1353,-0.1464,-0.1558,-0.1633,-0.1697,-0.1714,-0.1711,-0.1529,-0.1425,-0.1219,-0.0952,-0.0884,0,0,-0.0985,-0.1015,-0.1054,-0.1125,-0.1201,-0.132,-0.1348,-0.1495,-0.159,-0.1652,-0.1655,-0.1517,-0.1418,-0.1211,-0.0808,-0.0742,0,0,0,-0.103,-0.1052,-0.109,-0.1151,-0.1243,-0.1255,-0.1406,-0.1426,-0.1474,-0.1622,-0.1522,-0.1465,-0.134,-0.1202,-0.1151,-0.1239,-0.17,-0.17,-0.17,-0.0934,-0.1009,-0.1038,-0.112,-0.1142,-0.1214,-0.12,-0.1244,-0.1379,-0.1339,-0.1307,-0.1019,-0.0872,-0.083,-0.0927,-0.1329,-0.1328,-0.1328,-0.1327,-0.0921,-0.0937,-0.0959,-0.1005,-0.0993,-0.0992,-0.0987,-0.1033,-0.0935,-0.1115,-0.1003,-0.1006,-0.076,-0.0885,-0.1314,-0.1317,-0.1318,-0.132,-0.132,-0.0868,-0.0869,-0.0898,-0.0877,-0.0811,-0.0827,-0.065,-0.0706,-0.0724,-0.0622,-0.0456,-0.0457,-0.0556,-0.0559,-0.0557,-0.0556,-0.0555,-0.0554,-0.0553,-0.0772,-0.0801,-0.0753,-0.0738,-0.0673,-0.0547,-0.0457,-0.0335,-0.0176,-0.0178,-0.0176,-0.0441,-0.0783,-0.0802,-0.053,-0.0534,-0.0537,-0.0539,-0.0541,-0.0692,-0.0682,-0.0608,-0.0545,-0.0375,-0.0119,-0.0054,0.0303,0.0398,0.0564,0.025,0.0074,0.0056,0.0013,0.0014,0.048,0.048,0.0481,0.0481,-0.0586,-0.0598,-0.0413,-0.0267,-0.0055,0.0104,0.0609,0.0831,0.0833,0.0796,0.0613,0.0449,0.0412,0.0397,0.0346,0.0345,0.0885,0.0885,0.0884,-0.0471,-0.044,-0.0246,-0.013,0.0104,0.0424,0.0919,0.1231,0.1122,0.0874,0.0445,0.0428,0.0138,0.0086,0.0004,-0.006,-0.0087,0,0]}],[{"header":{"parameterUnit":"m.s-1","parameterCategory":2,"la1":30.2992,"la2":30.254,"lo1":-89.0895,"lo2":-89.0443,"dy":0.0025,"dx":0.0025,"nx":19,"ny":19,"refTime":"2026-03-23T03:00:00:Z","depth":"2","parameterNumber":2,"parameterNumberName":"U-component_of_CURRENTS"},"data":[0,0,0,0.2032,0.2035,0.2237,0.2239,0.2587,0.259,0,0,0,0,0,0,0,0,0,0,0,0.1974,0.1975,0.2032,0.2036,0.2237,0.2239,0.2586,0.259,0,0,0,0,0,0,0,0,0,0,0,0.1974,0.1975,0.1976,0.2036,0.2237,0.2239,0.2585,0.2419,0,0,0,0,0,0,0,0,0,0,0.2215,0.2166,0.1975,0.1976,0.2037,0.2237,0.2239,0.241,0.2429,0.2511,0,0.2531,0,0.2552,0.2612,0.2613,0,0,0,0.2068,0.215,0.2167,0.1976,0.2039,0.2236,0.2156,0.242,0.2442,0.2536,0.2536,0.2548,0.2558,0.2614,0.2616,0.3012,0.3014,0,0,0.2057,0.2056,0.2152,0.218,0.208,0.2149,0.2161,0.2433,0.2475,0.2537,0.2556,0.2564,0.2616,0.2619,0.301,0.3012,0,0,0,0.2003,0.2048,0.2059,0.2167,0.2188,0.2154,0.2168,0.2464,0.2456,0.2559,0.2568,0.2618,0.2622,0.3008,0.3011,0.2985,0,0,0,0.1998,0.2013,0.2054,0.2062,0.2181,0.2323,0.2194,0.2438,0.2468,0.2566,0.2618,0.2626,0.3006,0.3009,0.2981,0.2921,0,0,0,0.1967,0.2012,0.2021,0.206,0.2126,0.2317,0.2329,0.2445,0.2473,0.2613,0.2626,0.3005,0.3009,0.2977,0.2918,0.2911,0,0,0,0.1977,0.2,0.2022,0.2084,0.2124,0.2266,0.2328,0.2495,0.262,0.262,0.3006,0.3011,0.2976,0.2916,0.291,0.2753,0.2745,0,0,0.1997,0.2004,0.2039,0.2062,0.2182,0.2241,0.2413,0.2605,0.2717,0.2924,0.2933,0.2982,0.2918,0.2911,0.3006,0.2989,0,0,0,0.2041,0.2072,0.2111,0.2201,0.2292,0.2405,0.2574,0.2669,0.2903,0.2802,0.3079,0.3041,0.3035,0.2943,0.2933,0.3031,0.3031,0.303,0.303,0.2096,0.2142,0.2224,0.2297,0.239,0.2573,0.2684,0.2865,0.2957,0.3082,0.3093,0.3165,0.3075,0.3063,0.3205,0.3205,0.3205,0.3205,0.3205,0.2173,0.2224,0.2297,0.2386,0.2491,0.2641,0.2835,0.2933,0.3104,0.3169,0.3167,0.3012,0.3049,0.3205,0.3205,0.3205,0.3205,0.3205,0.3205,0.2238,0.2252,0.2315,0.2437,0.255,0.2682,0.2799,0.296,0.3086,0.3111,0.3024,0.3022,0.306,0.3124,0.3124,0.3124,0.3124,0.3124,0.3123,0.2269,0.2313,0.2355,0.248,0.2528,0.2639,0.2798,0.2874,0.2936,0.2969,0.2969,0.3137,0.314,0.306,0.312,0.312,0.3121,0.3121,0.3121,0.2334,0.2312,0.2366,0.2414,0.2499,0.2492,0.2661,0.2699,0.2781,0.2767,0.2895,0.2902,0.2878,0.2887,0.2804,0.2794,0.2794,0.2794,0.2794,0.2311,0.2336,0.2313,0.2343,0.2388,0.2407,0.2314,0.2314,0.2454,0.2456,0.247,0.2455,0.2475,0.2429,0.2449,0.2357,0.2231,0.223,0.2229,0.2308,0.2299,0.2277,0.2298,0.2323,0.224,0.2025,0.1834,0.1934,0.2206,0.2366,0.2757,0.2776,0.2792,0.2757,0.2774,0.2642,0,0]},{"header":{"parameterUnit":"m.s-1","parameterCategory":2,"la1":30.2992,"la2":30.254,"lo1":-89.0895,"lo2":-89.0443,"dy":0.0025,"dx":0.0025,"nx":19,"ny":19,"refTime":"2026-03-23T03:00:00:Z","depth":"2","parameterNumber":3,"parameterNumberName":"V-component_of_CURRENTS"},"data":[0,0,0,0.0379,0.0378,0.0325,0.0325,0.0328,0.0329,0,0,0,0,0,0,0,0,0,0,0,0.0397,0.0397,0.0379,0.0378,0.0325,0.0325,0.0328,0.0329,0,0,0,0,0,0,0,0,0,0,0,0.0397,0.0397,0.0397,0.0378,0.0326,0.0325,0.0328,0.0347,0,0,0,0,0,0,0,0,0,0,0.0388,0.0381,0.0397,0.0397,0.0378,0.0326,0.0325,0.0347,0.0346,0.0377,0,0.0377,0,0.0362,0.0332,0.0332,0,0,0,0.0363,0.0382,0.039,0.0397,0.0377,0.0326,0.0345,0.0345,0.0344,0.0376,0.0377,0.0376,0.0362,0.0332,0.0333,0.0514,0.0516,0,0,0.0366,0.0365,0.039,0.0389,0.0376,0.0347,0.0344,0.0344,0.0338,0.0377,0.0376,0.0362,0.0333,0.0333,0.0513,0.0515,0,0,0,0.0384,0.0367,0.0372,0.039,0.038,0.0346,0.0342,0.0337,0.0345,0.0376,0.0362,0.0333,0.0333,0.0511,0.0514,0.0688,0,0,0,0.0385,0.0379,0.0374,0.037,0.0379,0.0343,0.0335,0.0344,0.0344,0.0362,0.0333,0.0334,0.0509,0.0512,0.0679,0.0719,0,0,0,0.0397,0.038,0.0382,0.0371,0.0357,0.0343,0.0348,0.0343,0.0337,0.0332,0.0334,0.0508,0.0512,0.0672,0.0707,0.0695,0,0,0,0.0386,0.0406,0.0382,0.0407,0.0357,0.0431,0.0348,0.0366,0.0371,0.0333,0.051,0.0513,0.0669,0.07,0.0689,0.0595,0.0613,0,0,0.0413,0.0408,0.043,0.0409,0.0506,0.0436,0.0575,0.052,0.0446,0.0507,0.051,0.0682,0.0706,0.0693,0.082,0.0831,0,0,0,0.0442,0.0469,0.0491,0.0535,0.0571,0.0666,0.0632,0.0637,0.0662,0.0469,0.0713,0.0722,0.0707,0.0641,0.0652,0.0532,0.0531,0.0531,0.0531,0.0477,0.0523,0.0622,0.0709,0.0761,0.0837,0.0897,0.0908,0.0826,0.0869,0.0889,0.103,0.0969,0.0974,0.0934,0.0935,0.0936,0.0937,0.0937,0.06,0.0686,0.0765,0.0872,0.0983,0.1089,0.118,0.1147,0.1184,0.1101,0.1077,0.0861,0.0995,0.0951,0.0949,0.0947,0.0945,0.0944,0.0943,0.0648,0.0719,0.078,0.0976,0.1123,0.1221,0.1334,0.136,0.1294,0.1323,0.1116,0.111,0.1056,0.1262,0.1263,0.1263,0.1263,0.1263,0.1263,0.0692,0.0782,0.0914,0.1083,0.1169,0.1285,0.1396,0.1403,0.1335,0.127,0.1267,0.1136,0.1126,0.1073,0.1267,0.1266,0.1266,0.1265,0.1265,0.0804,0.0833,0.0999,0.1097,0.13,0.137,0.1443,0.1408,0.1376,0.1303,0.122,0.122,0.1119,0.1109,0.1054,0.1231,0.1231,0.1231,0.1231,0.0882,0.0914,0.1107,0.123,0.1368,0.1421,0.1423,0.1348,0.1253,0.1159,0.1162,0.1112,0.1114,0.1008,0.1,0.094,0.1088,0.1088,0.1088,0.1015,0.1025,0.1145,0.1248,0.1388,0.1438,0.1401,0.1256,0.1068,0.1085,0.1169,0.1215,0.1146,0.1148,0.0982,0.0971,0.0873,0,0]}],[{"header":{"parameterUnit":"m.s-1","parameterCategory":2,"la1":30.2992,"la2":30.254,"lo1":-89.0895,"lo2":-89.0443,"dy":0.0025,"dx":0.0025,"nx":19,"ny":19,"refTime":"2026-03-23T03:00:00:Z","depth":"4","parameterNumber":2,"parameterNumberName":"U-component_of_CURRENTS"},"data":[0,0,0,0.0611,0.0611,0.061,0.061,0.071,0.0711,0,0,0,0,0,0,0,0,0,0,0,0.0627,0.0627,0.0611,0.0611,0.061,0.061,0.0709,0.0711,0,0,0,0,0,0,0,0,0,0,0,0.0627,0.0627,0.0626,0.0611,0.061,0.061,0.0709,0.0689,0,0,0,0,0,0,0,0,0,0,0.0679,0.0682,0.0627,0.0626,0.061,0.0609,0.061,0.0687,0.069,0.0733,0,0.073,0,0.0711,0.0718,0.0718,0,0,0,0.0628,0.0679,0.0664,0.0626,0.061,0.0609,0.0615,0.0688,0.0692,0.0738,0.0731,0.0733,0.0712,0.0719,0.0719,0.0882,0.0883,0,0,0.0628,0.0645,0.0661,0.0666,0.0608,0.0615,0.0615,0.069,0.0705,0.0731,0.0735,0.0714,0.0719,0.072,0.0881,0.0883,0,0,0,0.0617,0.0646,0.0627,0.0663,0.0648,0.0614,0.0614,0.0702,0.0691,0.0736,0.0715,0.072,0.0721,0.088,0.0882,0.1002,0,0,0,0.0618,0.0637,0.0627,0.064,0.0646,0.0662,0.0625,0.0686,0.0693,0.0715,0.072,0.0722,0.0879,0.0881,0.0997,0.0995,0,0,0,0.0627,0.0638,0.0633,0.064,0.0627,0.066,0.0654,0.0687,0.068,0.0718,0.0723,0.0879,0.0881,0.0992,0.0988,0.1125,0,0,0,0.0651,0.0632,0.0634,0.0618,0.0627,0.0653,0.0653,0.0709,0.075,0.0721,0.0879,0.0882,0.099,0.0984,0.1119,0.0903,0,0,0,0.0632,0.0631,0.0619,0.0619,0.0631,0.0654,0.0743,0.0806,0.0799,0.0862,0.0865,0.0999,0.0987,0.1123,0.1039,0,0,0,0,0.0615,0.0611,0.0615,0.0624,0.065,0.0766,0.0813,0.0847,0.0943,0.0826,0.1011,0.0999,0.1083,0.0941,0.0893,0.0893,0.0892,0.0892,0.0892,0.0634,0.0628,0.0645,0.0679,0.0736,0.086,0.0945,0.1014,0.1012,0.1085,0.1111,0.13,0.1156,0.1151,0.1152,0.1152,0.1153,0.1153,0.1154,0.0616,0.0616,0.069,0.0712,0.0857,0.0979,0.1117,0.1164,0.1283,0.1221,0.1301,0.1089,0.1166,0.1163,0.1162,0.116,0.1159,0.1158,0.1158,0.0596,0.0603,0.0653,0.0755,0.0937,0.1094,0.1232,0.1329,0.1378,0.1444,0.1358,0.139,0.137,0.1541,0.1542,0.1543,0.1543,0.1544,0.1544,0.0563,0.061,0.069,0.0815,0.0933,0.1111,0.1321,0.1383,0.1495,0.1438,0.1508,0.1431,0.1418,0.1392,0.1554,0.1552,0.1551,0.155,0.1549,0.0508,0.0597,0.0667,0.0772,0.0978,0.1084,0.1297,0.1402,0.1499,0.1508,0.1455,0.1457,0.1394,0.1383,0.1352,0.1509,0.1506,0.1504,0,0.0524,0.0551,0.0688,0.0788,0.09,0.1049,0.1134,0.1246,0.1352,0.1313,0.148,0.1416,0.1416,0.1335,0.1322,0.1279,0,0,0,0.0554,0.0584,0.0665,0.0744,0.0848,0.0978,0.1145,0.1144,0.1355,0.1352,0.1451,0.1465,0.1455,0.1583,0.1491,0.1476,0.1429,0,0]},{"header":{"parameterUnit":"m.s-1","parameterCategory":2,"la1":30.2992,"la2":30.254,"lo1":-89.0895,"lo2":-89.0443,"dy":0.0025,"dx":0.0025,"nx":19,"ny":19,"refTime":"2026-03-23T03:00:00:Z","depth":"4","parameterNumber":3,"parameterNumberName":"V-component_of_CURRENTS"},"data":[0,0,0,0.0437,0.0439,0.0525,0.0526,0.0526,0.0525,0,0,0,0,0,0,0,0,0,0,0,0.0415,0.0416,0.0437,0.0439,0.0525,0.0526,0.0526,0.0525,0,0,0,0,0,0,0,0,0,0,0,0.0415,0.0416,0.0417,0.0439,0.0525,0.0526,0.0526,0.0489,0,0,0,0,0,0,0,0,0,0,0.0419,0.0412,0.0416,0.0417,0.044,0.0525,0.0526,0.0488,0.0491,0.0453,0,0.0476,0,0.0492,0.0522,0.0522,0,0,0,0.0443,0.041,0.0432,0.0417,0.044,0.0525,0.0487,0.0491,0.0494,0.0456,0.0476,0.0477,0.0492,0.0522,0.0522,0.0477,0.0476,0,0,0.0438,0.0427,0.0431,0.0435,0.0472,0.0485,0.049,0.0494,0.0498,0.0476,0.0477,0.0492,0.0522,0.0521,0.0477,0.0477,0,0,0,0.0422,0.0423,0.0449,0.0434,0.0454,0.0487,0.0493,0.0498,0.0507,0.0478,0.0492,0.0521,0.0521,0.0477,0.0477,0.0551,0,0,0,0.0419,0.0414,0.0447,0.044,0.0455,0.0491,0.0497,0.0508,0.0509,0.0492,0.0521,0.052,0.0477,0.0477,0.055,0.0552,0,0,0,0.041,0.0412,0.0426,0.0439,0.0474,0.0492,0.0503,0.0509,0.0516,0.0522,0.052,0.0477,0.0477,0.0548,0.055,0.0571,0,0,0,0.0389,0.0429,0.0426,0.0473,0.0474,0.0528,0.0503,0.0544,0.0557,0.0521,0.0477,0.0477,0.0548,0.0548,0.057,0.0546,0,0,0,0.0429,0.0433,0.0462,0.0462,0.0524,0.0516,0.056,0.0567,0.0528,0.0469,0.0469,0.055,0.0549,0.0571,0.0521,0,0,0,0,0.0468,0.0493,0.0511,0.0546,0.057,0.0598,0.06,0.0569,0.0544,0.0532,0.0521,0.0516,0.0529,0.0509,0.0475,0.0475,0.0475,0.0475,0.0475,0.0494,0.052,0.0574,0.0613,0.064,0.0649,0.0641,0.0589,0.057,0.0554,0.0558,0.0591,0.0572,0.0549,0.0549,0.055,0.055,0.055,0.055,0.0556,0.059,0.0621,0.0691,0.0706,0.0743,0.0681,0.0658,0.0593,0.0568,0.0579,0.0563,0.0557,0.0556,0.0555,0.0554,0.0553,0.0553,0.0553,0.0576,0.0597,0.0653,0.0733,0.0795,0.081,0.0793,0.0739,0.0655,0.0645,0.0636,0.0623,0.0639,0.0683,0.0683,0.0683,0.0684,0.0684,0.0684,0.0569,0.0624,0.069,0.0779,0.084,0.0885,0.0864,0.0808,0.0752,0.0682,0.0681,0.0635,0.063,0.0644,0.0686,0.0685,0.0685,0.0685,0.0685,0.0599,0.0627,0.0709,0.0776,0.0887,0.0916,0.0925,0.0834,0.0784,0.0713,0.0689,0.0689,0.0651,0.0646,0.0659,0.0707,0.0707,0.0706,0,0.0605,0.0625,0.0724,0.0802,0.0866,0.0917,0.0872,0.0824,0.0736,0.0736,0.0751,0.0728,0.0726,0.0686,0.0681,0.0697,0,0,0,0.0622,0.0645,0.0704,0.0781,0.0861,0.0846,0.0853,0.081,0.0781,0.0704,0.0703,0.0704,0.0693,0.0691,0.0631,0.0625,0.0644,0,0]}]]